Location: Passau
(48.5830°N, 13.4830°E)
Time: 20:00:18
(UTC+02:00)

Vanguard 3 - Pass Details

Date: 20 May 2024
Orbit: 509 x 3231 km, 33.3° (Epoch: 15 June)

Event Time Altitude Azimuth Distance (km) Brightness Sun altitude
Rises 21:40:35 0° 242° (WSW) 4,766 11.4 -7.8°
Reaches altitude 10° 21:43:28 10° 236° (SW) 4,103 10.9 -8.1°
Maximum altitude 21:54:21 43° 170° (S) 3,197 9.8 -9.4°
Drops below altitude 10° 22:10:40 10° 108° (ESE) 6,045 11.1 -11.2°
Sets 22:16:02 0° 103° (ESE) 7,175 11.5 -11.8°
